This is the latest recevied weather packets stored in our database for station/object KC5DAQ-25. If no packets are shown the sender has not sent any weather packets the latest 10 day(s).
| Time | Temp. | Humidity | Pressure | Rain* | Wind** | Luminosity | Snow |
|---|---|---|---|---|---|---|---|
| 1777628668 | 17.78° C | 88% | 1002.8 hPa | 4.83 mm | - | 0 W/m² | - |
| 1777628608 | 17.78° C | 88% | 1002.6 hPa | 4.83 mm | - | 0 W/m² | - |
| 1777628546 | 17.78° C | 88% | 1002.5 hPa | 4.83 mm | - | 0 W/m² | - |
| 1777628488 | 17.78° C | 88% | 1002.2 hPa | 4.83 mm | - | 0 W/m² | - |
| 1777628426 | 17.78° C | 88% | 1002.1 hPa | 4.83 mm | - | 0 W/m² | - |
| 1777628367 | 17.78° C | 88% | 1001.9 hPa | 4.83 mm | - | 0 W/m² | - |
| 1777628308 | 17.78° C | 88% | 1001.9 hPa | 4.83 mm | - | 0 W/m² | - |
| 1777628247 | 17.78° C | 88% | 1001.7 hPa | 4.57 mm | - | 0 W/m² | - |
| 1777628187 | 17.78° C | 88% | 1001.7 hPa | 4.57 mm | - | 0 W/m² | - |
| 1777628127 | 17.78° C | 88% | 1001.9 hPa | 4.57 mm | - | 0 W/m² | - |
| 1777628068 | 17.78° C | 88% | 1001.9 hPa | 4.32 mm | - | 0 W/m² | - |
| 1777628008 | 17.78° C | 88% | 1002 hPa | 4.32 mm | - | 0 W/m² | - |
| 1777627947 | 17.78° C | 88% | 1002.3 hPa | 4.32 mm | - | 0 W/m² | - |
| 1777627887 | 17.78° C | 88% | 1002.5 hPa | 4.06 mm | - | 0 W/m² | - |
| 1777627828 | 17.78° C | 88% | 1002.6 hPa | 3.81 mm | - | 0 W/m² | - |
| 1777627767 | 17.78° C | 88% | 1002.6 hPa | 3.81 mm | - | 0 W/m² | - |
| 1777627706 | 17.78° C | 88% | 1002.9 hPa | 3.81 mm | - | 0 W/m² | - |
| 1777627648 | 17.78° C | 88% | 1003 hPa | 3.56 mm | - | 0 W/m² | - |
| 1777627588 | 17.78° C | 88% | 1003.4 hPa | 3.3 mm | - | 0 W/m² | - |
| 1777627526 | 17.78° C | 88% | 1003.6 hPa | 3.3 mm | - | 0 W/m² | - |
| 1777627469 | 17.78° C | 88% | 1003.9 hPa | 3.05 mm | - | 0 W/m² | - |
| 1777627406 | 17.78° C | 88% | 1004 hPa | 2.79 mm | - | 0 W/m² | - |
| 1777627347 | 17.78° C | 88% | 1004.3 hPa | 2.79 mm | - | 0 W/m² | - |
| 1777627288 | 17.78° C | 88% | 1004.3 hPa | 2.54 mm | - | 0 W/m² | - |
| 1777627227 | 17.78° C | 88% | 1004.4 hPa | 2.54 mm | - | 0 W/m² | - |
* Rain latest hour (hover to see other rain measurements)
** Current wind speed in m/s (hover to see current wind gust speed)